522  
ASUS43 KGLD 061208  
RWRGLD  
 
GOODLAND FORECAST AREA HOURLY WEATHER ROUNDUP  
NATIONAL WEATHER SERVICE GOODLAND KS  
600 AM MDT WED JUL 06 2022  
   
..OFFICIAL OBSERVATIONS
 
 
 
CITY SKY/WX TMP DP RH WIND PRES REMARKS
 
GOODLAND KS MOCLDY 65 62 90 NE8 30.00R  
HILL CITY KS PTCLDY 69 66 90 E13 29.95S  
IMPERIAL NEB CLOUDY 68 68 100 E7 30.01R  
MCCOOK NEB MOCLDY 69 66 90 E8 29.96R  
AKRON CO CLOUDY 64 62 93 N6 30.12R  
BURLINGTON CO CLOUDY 66 62 87 E10 30.04R  
LIMON CO CLOUDY 65 60 84 E8 30.13S  

 
   
..UNOFFICIAL OBSERVATIONS
 
 
 
CITY SKY/WX TMP DP RH WIND PRES REMARKS
 
NORTON KS FAIR 68 63 83 E15 29.96F  
YUMA CO CLOUDY 63 43 48 N6 30.08R HAZE  

 
 
 
CLICK HERE TO GO TO PREVIOUS BULLETINS.

The Nexlab KS Page
The Nexlab CO Page
The Nexlab NE Page Main Text Page